Regional Weather Roundup
Issued by NWS Jackson, KY

Home | Current Version | Previous Version | Text Only | Print | Product List | Glossary On
Versions: 1 2 3 4 5 6 7 8 9 10 11 12 13 14 15 16 17 18 19 20 21 22 23 24 25 26 27 28 29 30 31 32 33 34 35 36 37 38 39 40 41 42 43 44 45 46 47 48 49 50
000
ASUS43 KJKL 131610
RWRJKL

EAST KENTUCKY HOURLY WEATHER ROUNDUP
NATIONAL WEATHER SERVICE JACKSON KY
1100 AM EST WED NOV 13 2019

NOTE: "FAIR" INDICATES FEW OR NO CLOUDS BELOW 12,000 FEET WITH
NO SIGNIFICANT WEATHER AND/OR OBSTRUCTIONS TO VISIBILITY.

* THESE REPORTS ARE NOT UNDER NWS QUALITY CONTROL AND MAY NOT
  REPORT WEATHER SUCH AS PRECIPITATION AND FOG.

KYZ079-080-083-085-087-088-110-112-115-119-120-131700
...EASTERN KENTUCKY...

CITY           SKY/WX    TMP DP  RH WIND       PRES   REMARKS
JACKSON          N/A     23  16  74 MISG      30.36
LONDON           N/A     25  17  72 E7        30.34F WCI  17
SOMERSET*        N/A     27  16  63 W6        30.37F WCI  20
MONTICELLO*      N/A     30  22  72 E8        30.36F WCI  22
WILLIAMSBURG*    N/A     27  19  74 CALM      30.33F
MIDDLESBORO*     N/A     28  13  52 CALM      30.36F
HARLAN APT*      N/A     27  11  50 CALM      30.32F
PIKE CO APT*     N/A     23  15  71 E3        30.35F
BIG SANDY APT*   N/A     25  17  71 SE3       30.38F
MOREHEAD APT*    N/A     25  16  68 VRB5      30.40F WCI  19
ASHLAND*         N/A     27  18  69 SE5       30.45F WCI  22
$$

KYZ035-036-041-042-044-050-067-078-099-131700
...CENTRAL KENTUCKY...

CITY           SKY/WX    TMP DP  RH WIND       PRES   REMARKS
MT STERLING*     N/A     25  16  68 SE7       30.39F WCI  17
FLEMING/MASON*   N/A     22  15  72 SE6       30.41F WCI  15
DANVILLE*        N/A     25  18  74 N8        30.36F WCI  16
RICHMOND*        N/A     25  19  80 SE7       30.36F WCI  17
LEXINGTON        N/A     25  14  63 E8        30.36F WCI  16
FRANKFORT        N/A     25  16  68 E9        30.35F WCI  15
LOUISVILLE     PTSUNNY   26  14  60 E9        30.36F WCI  17
LEBANON*         N/A     25  18  74 E7        30.35F WCI  17
GLASGOW*         N/A     29  19  66 SE5       30.36S WCI  23
BOWLING GREEN    N/A     28  18  66 SE3       30.38S
$$

KYZ091>093-OHZ055-061-077-WVZ005-015-034-035-042-131700
...SOUTHERN OHIO/WEST VIRGINIA...

CITY           SKY/WX    TMP DP  RH WIND       PRES   REMARKS
COVINGTON      PTSUNNY   22  14  71 S12       30.36F WCI  10
COLUMBUS       PTSUNNY   20  12  71 S10       30.40F WCI   9
DAYTON         PTSUNNY   21  12  68 S14       30.35F WCI   8
WILMINGTON       N/A     20  13  74 S8        30.36F WCI  10
HUNTINGTON       N/A     24  15  68 E6        30.42F WCI  17
CHARLESTON       N/A     23  14  68 VRB3      30.42F
PINEVILLE*       N/A     27  13  54 MISG      30.38F
BECKLEY          N/A     21   6  52 E5        30.30R WCI  15
BLUEFIELD        N/A     21   8  57 E8        30.28S WCI  11
LOGAN CO APT*    N/A     25  14  63 CALM      30.35F
$$

VAZ002-007-008-TNZ017-027-036-066-071-131700
...SOUTHWEST VIRGINIA/EAST TENNESSEE...

CITY           SKY/WX    TMP DP  RH WIND       PRES   REMARKS
WISE*            N/A     27  12  54 SE3       30.27F
JONESVILLE*      N/A     27  14  59 MISG      30.36F
ABINGDON*        N/A     25   7  45 E9        30.31F WCI  16
BRISTOL          N/A     27  15  61 NE5       30.34F WCI  22
MORRISTOWN*    SUNNY     27  19  74 E7        30.32F WCI  19
SEVIERVILLE*   SUNNY     27  19  74 CALM      30.34F
KNOXVILLE        N/A     27  19  72 CALM      30.35F
LAFOLLETTE*    SUNNY     28  16  59 VRB5      30.36F WCI  23
OAK RIDGE        N/A     28  15  58 CALM      30.37F
CROSSVILLE       N/A     28  14  55 VRB7      30.28R WCI  21
NASHVILLE        N/A     29  15  56 SE6       30.36S WCI  23
$$

...KEY TO REMARKS...
VSB - VISIBILITY IN MILES
WCI - WIND CHILL INDEX
HX  - HEAT INDEX

$$



USA.gov is the U.S. government's official web portal to all federal, state and local government web resources and services.